Regional Weather Roundup
Issued by NWS

Home | Current Version | Previous Version | Graphics & Text | Print | Product List | Glossary On
Versions: 1 2 3 4 5 6 7 8 9 10 11 12 13 14 15 16 17 18 19 20 21 22 23 24 25 26 27 28 29 30 31 32 33 34 35 36 37 38 39 40 41 42 43 44 45 46 47 48 49 50
000
ASUS43 KLOT 241502
RWRIL

ILLINOIS REGIONAL WEATHER ROUNDUP
NATIONAL WEATHER SERVICE CHICAGO/ROMEOVILLE IL
1000 AM CDT FRI MAR 24 2017

NOTE: "FAIR" INDICATES FEW OR NO CLOUDS BELOW 12,000 FEET WITH NO
SIGNIFICANT WEATHER AND/OR OBSTRUCTIONS TO VISIBILITY.

* THESE STATIONS ARE NOT UNDER NWS QUALITY CONTROL. THEY ALSO MAY NOT
  REPORT WEATHER SUCH AS PRECIPITATION OR FOG.

ILZ001-002-007-009-015-016-024-241600-
NORTHWEST ILLINOIS

CITY           SKY/WX    TMP DP  RH WIND       PRES   REMARKS
MOLINE         SUNNY     69  48  47 SW23G31   29.86S
STERLING*      CLOUDY    68  50  52 SW12G18   29.89S
SAVANNA*       MOSUNNY   62  49  61 S12       29.86S
$$

ILZ003-004-008-010-011-017-018-241600-
NORTH CENTRAL ILLINOIS

CITY           SKY/WX    TMP DP  RH WIND       PRES   REMARKS
ROCKFORD       CLOUDY    66  49  54 SW16G24   29.89F
FREEPORT*      MOSUNNY   59  48  65 SW17G25   29.89R
ROCHELLE*      CLOUDY    63  49  61 SW21G26   29.90S
DE KALB*       MOSUNNY   63  49  61 SW20G26   29.91S
$$

ILZ005-006-012>014-019>023-241600-
NORTHEAST ILLINOIS

CITY           SKY/WX    TMP DP  RH WIND       PRES   REMARKS
CHICAGO-OHARE  CLOUDY    66  49  54 SW17G24   29.91S
CHICAGO-MIDWAY PTSUNNY   64  49  57 SW18G24   29.94S
AURORA         CLOUDY    66  50  56 SW16G24   29.92F
LANSING*       SUNNY     62  53  71 SW20      29.97S
JOLIET*        SUNNY     66  52  60 SW13G20   29.95S
WAUKEGAN       CLOUDY    61  49  64 SW9       29.89F
DUPAGE AIRPORT CLOUDY    63  51  65 S14       29.91F
WHEELING       MOSUNNY   63  50  62 S14G30    29.91F
MORRIS*        CLOUDY    66  50  56 SW18      29.93S
NORTHERLY ISL    N/A     62  47  57 S13         N/A
$$

LMZ740>746-241600-
SOUTHERN LAKE MICHIGAN

STATION/POSITION SKY/WX   TEMP    WIND        PRES    VSBY  WAVE
                          AIR SEA DIR/SP/G                  HT/PER
                          (F)     (DEG/KT/KT) (MB)    (MI)  (FT/S)
HARRISON CRIB              59     210/ 26/ 29   N/A
BURNHAM HARBOR             63     210/ 15/ 16   N/A
CALUMET HARBOR             60     190/ 13/ 18 1013.4S
BURNS HARBOR               60     190/ 21/ 28 1014.9R
MICHIGAN CITY              62     190/ 20/ 23   N/A
$$

ILZ025>027-034>036-040-047-049-050-058-095>099-241600-
WEST-CENTRAL ILLINOIS

CITY           SKY/WX    TMP DP  RH WIND       PRES   REMARKS
QUINCY         SUNNY     69  50  50 S14       29.92S
GALESBURG*     SUNNY     64  50  60 S15G22    29.91S
MACOMB*        SUNNY     67  50  53 S17G24    29.94S
JACKSONVILLE*  SUNNY     67  53  60 S14       29.97R
PITTSFIELD*    SUNNY     71  52  49 S18G24    29.95F
$$

ILZ028>032-037-038-041>044-048-051>054-059>061-241600-
CENTRAL ILLINOIS

CITY           SKY/WX    TMP DP  RH WIND       PRES   REMARKS
PONTIAC        SUNNY     65  52  62 S18       29.98S
BLOOMINGTON    SUNNY     67  52  58 S18G24    29.98S
DECATUR        SUNNY     66  52  60 S20G26    30.02S
PEORIA         SUNNY     64  51  62 S14       29.95S
SPRINGFIELD    SUNNY     68  54  60 S14G22    29.98F
TAYLORVILLE    NOT AVBL
$$

ILZ033-039-045-046-055>057-062-063-241600-
EAST-CENTRAL ILLINOIS

CITY           SKY/WX    TMP DP  RH WIND       PRES   REMARKS
CHAMPAIGN      SUNNY     67  52  58 S25G35    30.03S
RANTOUL*       SUNNY     66  55  65 S17G24    30.02S
MATTOON        SUNNY     64  55  72 S16G29    30.07S
PARIS*         SUNNY     66  55  68 S23       30.09S
$$

ILZ079-100>102-241600-
SOUTHWEST ILLINOIS

CITY           SKY/WX    TMP DP  RH WIND       PRES   REMARKS
ALTON          SUNNY     68  55  64 S18G24    30.02S
BELLEVILLE     SUNNY     69  58  66 S18G24    30.03S
CAHOKIA*       SUNNY     70  54  56 S18G25    30.01F
SPARTA*        MOSUNNY   66  57  73 S17G26    30.09R
$$

ILZ064>066-069>071-074>076-080>082-084>086-088>090-092>094-241600-
SOUTH-CENTRAL ILLINOIS

CITY           SKY/WX    TMP DP  RH WIND       PRES   REMARKS
CARBONDALE     PTSUNNY   66  59  78 S20G31    30.11R
CAIRO*         CLOUDY    65  58  79 S12       30.16R
EFFINGHAM*     SUNNY     66  56  71 SE14G21   30.10S
MT. VERNON     CLOUDY    66  58  75 SW21G30   30.11S
CENTRALIA*     MOSUNNY   69  60  72 S20G29    30.08S
SALEM*         SUNNY     68  57  67 S18G25    30.09S
$$

ILZ067-068-072-073-078-083-087-091-241600-
SOUTHEAST ILLINOIS

CITY           SKY/WX    TMP DP  RH WIND       PRES   REMARKS
LAWRENCEVILLE  PTSUNNY   67  56  67 S20G26    30.15S
FLORA*         SUNNY     68  59  72 S16       30.11F
FAIRFIELD*     CLOUDY    67  58  74 S10       30.12S
HARRISBURG*    CLOUDY    67  58  73 S21G31    30.15R
ROBINSON*      SUNNY     64  55  70 S20       30.14S
CARMI*         MOSUNNY   68  58  72 S18G29    30.14F
$$

ABBREVIATIONS USED IN REMARKS
   TC - TEMPERATURE IN CELSIUS
  WCI - WIND CHILL INDEX
   HX - HEAT INDEX
  VSB - VISIBILITY
$$




USA.gov is the U.S. government's official web portal to all federal, state and local government web resources and services.